RH
63 70 68 70 72 69 68 62 58 57 50 49 60 68 70 68 68 68 71 65 64 69 66 64 60 64 64 68 67 65 66 62 66 60 62 64 64 58 53 61 62 58 57
65 71 70 68 72 71 69 60 58 54 57 63 61 70 70 74 69 67 68 70 61 63 64 66 65 65 68 63 66 67 66 65 63 69 67 63 64 64 62 59 58 54 56
66 71 70 66 74 71 69 65 62 60 60 63 60 64 66 72 68 65 65 65 68 68 65 66 64 63 63 66 66 69 68 66 73 72 74 68 73 72 63 65 65 57 56
76 74 73 67 70 65 63 66 66 63 63 64 65 65 70 70 67 68 64 70 69 67 66 67 67 68 68 64 68 68 71 69 70 70 73 78 81 77 83 78 60 58 71
68 72 76 62 61 63 68 68 67 65 67 70 70 72 67 67 67 65 62 68 70 69 68 69 68 66 67 70 68 70 70 70 73 77 83 86 89 91 79 66 74 75 78
53 71 85 66 68 63 66 69 73 75 67 68 69 70 74 73 72 72 72 76 73 68 68 69 71 73 70 71 78 79 77 83 86 89 92 94 79 65 66 73 84 87 91
76 81 86 72 71 71 68 73 70 71 85 78 73 77 81 76 76 78 72 70 76 75 70 67 75 74 73 76 79 79 74 76 73 70 67 63 65 66 66 66 79 78 90
83 73 75 76 86 79 73 71 74 75 79 90 79 78 84 82 71 65 66 66 75 81 80 76 78 76 74 76 76 72 63 49 45 47 50 53 57 63 71 77 76 69 72
78 77 86 84 87 83 79 76 74 75 80 88 91 92 82 64 67 65 73 84 89 88 86 80 71 60 70 68 66 59 36 43 71 71 61 61 66 75 60 56 53 50 58
99 92 89 87 89 89 83 80 79 82 88 94 94 80 69 64 65 67 86 86 86 77 64 52 45 40 40 38 32 28 41 57 56 50 52 55 59 54 44 43 44 48 60
99 98 97 94 95 95 92 89 92 92 93 85 78 73 66 63 66 71 95 74 64 55 50 44 41 42 43 39 38 40 51 49 46 45 45 46 45 44 42 52 51 50 53
96 100 100 100 98 97 94 97 97 94 92 84 75 68 64 62 64 70 69 82 74 69 52 44 42 42 47 43 45 53 50 47 45 44 45 46 45 45 44 55 56 53 47
99 99 100 100 100 100 100 98 97 93 90 89 82 72 64 56 52 51 63 66 72 62 48 44 46 50 49 47 49 50 49 47 46 46 46 44 46 44 42 44 52 45 36
95 98 98 98 99 100 100 99 96 95 93 86 79 74 64 56 52 51 48 47 48 50 45 43 47 49 50 48 48 46 44 41 43 46 47 47 47 45 45 41 36 36 31
88 87 85 86 89 91 84 82 84 79 71 75 82 70 63 58 49 34 38 38 38 36 48 51 50 48 47 45 42 41 44 47 47 51 48 47 48 48 50 46 42 45 56
80 75 65 60 65 71 80 82 80 82 73 60 64 71 64 59 48 41 32 23 19 22 48 48 49 46 46 52 49 51 54 53 54 51 50 50 52 50 50 49 48 54 57
59 54 59 68 59 53 48 44 44 42 42 54 60 51 50 45 34 25 20 17 24 43 53 49 50 49 55 58 51 50 52 53 52 51 51 52 52 51 51 54 55 56 62
44 42 42 54 66 58 53 51 41 33 28 26 24 22 20 19 18 17 21 30 39 40 54 51 50 49 51 51 50 51 54 54 54 54 52 52 54 54 57 60 62 63 62
44 39 38 36 34 43 48 49 52 46 42 40 26 20 18 18 21 23 28 37 41 50 51 49 48 49 51 53 51 52 53 55 55 55 53 52 56 57 64 65 65 67 68
47 44 38 38 36 35 34 36 35 37 47 41 31 23 19 18 25 39 47 45 46 46 48 48 50 50 52 53 52 55 56 56 56 54 54 55 60 62 66 68 69 72 77
54 50 45 36 34 37 33 35 38 36 38 44 40 38 24 25 26 40 43 43 45 47 47 48 51 52 54 55 53 54 55 57 56 53 51 57 60 62 67 73 75 79 83
53 53 47 44 39 36 39 37 37 40 40 38 39 43 35 39 36 36 46 44 43 45 46 48 51 51 52 53 53 53 55 56 56 46 50 58 63 66 73 76 82 85 86
53 55 51 45 43 36 33 35 38 38 40 40 38 43 42 36 31 31 46 44 44 45 47 49 52 54 54 50 51 53 53 54 50 38 44 53 63 71 77 82 84 85 85
69 57 56 50 47 44 40 35 38 38 39 39 41 40 38 36 33 30 44 44 43 42 42 44 49 50 51 52 52 51 52 53 48 38 40 51 58 66 75 82 85 83 84
78 70 59 56 58 52 44 41 40 40 40 39 38 38 37 38 32 26 32 42 42 42 44 46 47 48 50 52 52 52 54 54 47 44 42 43 46 52 67 78 82 82 83
81 77 74 71 70 64 56 50 42 40 41 40 39 38 39 39 34 32 34 41 42 42 44 46 47 48 50 51 50 52 54 49 52 58 56 55 48 49 60 77 82 83 80
Wind_Speed
29 27 25 22 20 18 16 14 13 12 15 14 12 11 9 8 12 10 10 8 5 7 5 4 3 1 1 2 3 2 4 5 1 1 5 12 9 14 13 15 14 17 15
34 32 28 26 25 23 19 16 13 11 11 10 14 12 11 9 11 13 12 10 10 9 8 7 6 4 3 3 2 2 3 3 2 4 4 9 9 14 15 15 16 16 15
33 33 31 29 28 26 25 22 17 13 13 9 10 13 13 13 13 11 10 9 10 7 9 12 10 6 5 4 2 2 1 3 4 5 6 7 7 13 15 14 15 16 16
28 28 31 31 29 28 25 25 23 19 17 13 11 11 11 12 11 12 13 5 9 8 4 1 6 7 7 6 4 3 4 6 5 6 6 6 7 12 10 17 20 16 12
24 20 28 32 29 29 25 23 21 26 22 18 13 13 10 10 13 13 10 8 8 6 4 5 4 6 6 6 6 3 3 2 3 5 6 5 6 10 15 14 13 13 7
25 20 19 29 25 23 20 15 19 16 22 19 14 12 11 9 9 7 8 9 10 8 6 5 2 3 5 6 4 2 3 2 2 1 2 6 6 9 8 10 14 10 6
29 16 20 17 20 12 21 19 25 17 16 13 11 9 9 10 11 10 8 7 9 8 8 7 6 4 3 4 5 6 5 5 2 1 2 3 5 5 6 9 9 9 5
27 26 20 19 16 12 11 15 17 19 20 18 11 11 9 6 4 4 6 8 9 10 9 9 7 5 5 8 10 8 7 4 3 2 4 5 5 4 1 5 7 7 5
24 22 18 19 20 15 13 12 14 17 17 18 12 10 11 7 3 1 2 7 11 11 10 8 6 7 7 7 6 7 7 9 15 19 23 21 17 15 11 5 10 9 6
22 20 19 19 14 13 13 11 11 13 15 16 16 13 8 3 3 1 5 11 13 13 11 9 9 9 8 7 6 8 11 13 16 17 18 19 19 18 17 14 10 13 8
14 15 17 17 16 14 13 11 13 15 16 16 14 10 6 5 4 2 6 12 14 15 13 11 9 7 6 6 6 6 11 13 13 12 15 17 17 17 19 18 16 15 16
14 15 22 21 16 15 13 13 16 18 16 13 11 11 9 8 8 7 5 9 12 12 12 9 8 6 6 6 9 11 11 9 8 10 11 14 14 15 16 17 17 19 20
19 18 19 19 18 16 16 14 13 14 14 12 10 10 11 10 8 8 9 9 10 9 8 5 4 4 6 7 8 8 7 5 7 10 14 14 14 13 10 12 12 12 17
22 21 19 17 15 15 14 13 13 10 9 12 11 11 11 10 8 7 5 5 7 6 7 7 8 7 5 7 6 6 7 9 11 15 15 14 14 14 14 12 12 6 15
19 17 19 18 16 14 13 13 9 8 6 6 11 14 15 10 7 7 5 4 4 5 9 9 8 8 9 9 10 11 12 12 15 15 14 14 15 15 17 15 17 18 21
15 13 10 13 12 11 10 12 9 9 8 7 5 12 12 7 5 3 3 3 4 6 11 11 11 9 11 13 13 14 13 13 14 13 13 14 15 15 16 17 17 20 20
8 8 6 6 8 8 6 5 7 5 7 7 5 3 5 6 5 5 4 3 3 5 9 10 13 11 13 15 14 13 14 13 10 11 11 11 12 13 14 16 15 16 16
6 8 8 5 6 3 3 3 4 4 4 5 6 5 3 3 4 4 4 5 7 5 6 15 18 18 17 16 14 14 13 11 9 9 10 10 11 12 14 14 15 15 14
5 6 8 7 5 5 1 3 7 6 5 4 3 1 2 3 3 3 5 4 2 8 18 18 18 16 14 12 12 12 11 10 8 7 9 9 10 9 11 11 12 12 13
1 2 2 2 3 2 2 2 4 2 8 7 4 5 4 4 4 4 3 3 5 15 19 19 16 13 10 9 10 12 12 10 6 6 7 7 8 7 9 9 12 13 15
5 4 3 4 3 3 5 4 2 0 0 9 10 7 4 4 4 1 2 4 11 16 16 14 12 9 6 8 10 11 8 6 5 5 5 6 4 5 6 7 8 10 11
9 8 7 4 4 6 6 5 5 3 0 1 6 12 11 7 4 4 6 10 13 12 11 10 9 6 6 5 8 8 8 5 3 3 3 3 2 4 5 6 7 8 10
13 12 11 10 7 6 9 9 8 8 7 5 5 12 14 12 10 8 12 15 14 12 8 7 9 12 9 6 7 7 5 2 2 2 1 0 1 1 3 4 5 7 8
14 15 15 15 15 14 11 11 10 9 10 12 10 11 15 18 12 10 12 16 15 12 10 9 10 10 10 8 6 6 6 4 1 2 0 1 1 2 2 1 3 6 9
18 17 16 16 14 19 23 19 17 17 16 14 14 15 14 13 14 13 13 18 18 15 14 13 13 13 13 10 8 8 8 5 3 1 1 2 2 3 2 3 3 6 8
18 19 21 21 19 17 19 24 25 22 20 21 19 17 16 16 19 18 18 20 21 19 18 17 14 13 14 12 9 9 9 9 8 5 3 3 4 4 4 4 4 7 11
Wind_Direction
199 200 200 199 196 199 211 219 228 231 222 219 217 209 228 227 213 225 225 233 239 210 237 227 249 265 105 83 68 108 67 64 58 9 4 16 32 21 26 33 25 23 20
204 201 204 205 203 208 212 216 225 230 201 221 211 214 216 232 225 227 230 231 220 215 215 222 228 225 231 245 266 353 10 39 357 283 342 18 33 20 19 10 5 1 7
204 206 206 210 208 209 217 218 218 221 223 221 214 222 235 246 244 240 241 242 210 225 241 235 232 222 238 262 272 288 355 359 3 349 0 4 17 4 355 355 0 355 3
199 208 213 214 214 216 219 224 224 219 219 223 228 228 232 229 240 250 234 221 222 224 228 202 224 237 236 243 251 271 312 329 327 343 349 1 354 352 4 357 349 2 45
193 209 225 222 217 221 222 229 232 233 227 220 219 233 238 234 240 243 239 215 229 233 229 227 257 245 239 233 241 249 284 312 327 331 337 328 350 5 357 355 0 8 54
211 226 230 229 220 216 201 218 216 236 232 232 223 229 231 243 257 260 243 236 219 232 231 216 208 208 221 209 177 211 248 254 261 248 341 357 354 358 15 25 22 4 357
200 205 213 209 219 239 216 205 227 223 218 226 206 208 211 231 252 262 251 238 224 218 204 213 204 207 209 199 157 163 123 113 98 55 312 312 325 353 3 16 19 14 56
199 201 214 227 232 223 217 219 223 227 221 239 234 210 246 248 256 287 256 239 218 212 208 196 196 181 171 161 156 145 115 87 57 341 303 316 309 317 320 70 51 55 71
211 218 220 217 208 217 238 238 216 215 202 200 217 211 195 209 227 333 291 177 171 151 142 139 138 133 136 147 168 142 116 88 100 101 102 95 92 88 79 76 49 32 37
208 201 203 184 186 184 192 186 180 190 179 170 174 172 168 169 208 177 200 180 152 139 131 129 123 119 122 127 129 123 104 106 115 112 101 97 96 90 76 66 52 67 58
201 184 164 162 170 182 172 172 170 165 159 153 153 144 133 109 92 52 182 171 153 138 131 125 118 119 117 107 93 105 120 121 116 113 102 96 90 81 74 77 71 79 84
154 144 132 145 154 158 154 152 161 163 164 159 147 129 117 108 112 126 134 183 166 150 136 135 132 144 152 120 108 109 122 127 123 106 93 79 72 71 78 87 90 86 73
98 94 103 131 141 152 159 158 159 165 167 163 157 145 133 124 128 127 139 138 150 154 141 141 142 143 145 129 123 132 131 120 115 103 92 85 83 80 88 100 100 84 71
98 97 100 99 102 113 131 141 147 151 166 166 159 159 155 151 151 144 150 149 140 140 133 135 148 147 144 122 119 104 98 107 110 105 96 96 93 85 73 62 67 73 56
95 96 100 100 99 100 99 96 102 119 133 159 181 178 173 167 156 146 167 191 192 171 171 160 154 146 135 123 109 102 103 107 104 106 103 98 86 79 67 63 61 62 62
113 116 110 111 114 117 122 121 114 107 95 90 111 178 180 179 170 207 258 267 247 200 183 178 166 150 139 128 113 103 98 103 104 101 93 89 88 83 76 65 57 62 56
106 104 109 154 132 128 131 133 146 145 151 164 192 220 201 220 237 236 243 238 206 186 190 173 162 155 150 147 126 114 103 104 109 95 84 81 83 77 68 67 67 66 57
64 61 38 59 183 181 186 182 150 176 167 175 196 196 176 233 220 194 189 172 159 185 190 165 146 135 134 137 132 124 118 120 105 87 78 76 72 70 67 60 55 53 53
72 106 80 97 87 73 285 273 262 246 224 220 191 160 147 177 178 181 153 163 197 152 158 152 147 145 140 135 135 133 139 130 110 85 76 67 63 63 68 62 58 54 51
17 61 80 91 96 88 72 82 51 9 228 221 214 181 172 172 168 120 40 15 168 165 159 152 150 151 148 145 143 147 143 132 109 87 82 72 68 60 56 48 49 51 42
261 280 279 279 299 319 329 348 342 107 166 237 236 222 175 136 146 284 318 129 150 155 155 157 163 162 163 166 157 157 156 136 111 104 93 83 68 63 51 56 58 54 41
247 258 277 288 283 254 269 288 304 342 43 155 245 214 203 203 216 262 242 190 171 170 173 178 179 181 170 173 172 174 174 158 105 74 49 61 62 50 71 65 52 38 31
236 239 248 253 263 265 253 261 277 272 274 273 267 222 218 227 235 246 210 184 177 175 188 194 183 173 172 171 189 211 207 216 146 8 78 55 179 115 74 60 36 27 21
244 241 244 251 253 253 255 252 252 256 269 266 265 247 243 250 245 227 202 204 201 201 208 214 197 199 185 182 194 208 210 204 294 320 309 209 246 325 305 357 17 1 353
249 250 248 248 268 260 255 251 247 248 248 256 257 259 268 263 228 225 218 209 210 213 209 209 202 199 201 214 232 228 208 226 228 186 322 287 298 325 296 289 323 334 335
256 260 258 261 261 270 267 261 255 251 254 250 252 258 261 251 230 226 223 212 213 215 209 208 209 213 220 228 229 227 220 214 220 238 253 301 311 312 288 275 286 308 316